Weather in Kuzhmara

Russia / Mari El Republic     56°50′48″N   48°19′30″E
temp.,
°C
wind,
m/s
gust,
m/s
humid.,
%
clouds,
%
prec.,
mm/h
press.,
hPa
HPBL,
m
3 march, wed
wed300:00−5w349892 0.1 99989
03:00−3w499795 0.6 999407
06:00−5wnw61195100 0.9 999569
09:00−4nnw61195100 1.4 1001708
12:00−4nw6989100 0.3 1003680
15:00−5wnw6988100 0.4 1004772
18:00−6wnw51090100 0.1 1004690
21:00−6wnw51089100 0.2 1004655
4 march, thu
thu400:00−7wsw5995100 0.3 1001379
03:00−6sw51195100 0.9 1000501
06:00−4sw51295100 0.2 996469
09:00−2sw71195100 1.1 994783
12:00−1sw61096100 0.6 990738
15:000wsw71489100 3.4 9891315
18:00−3w8158382 0.3 991768
21:00−4wnw6129583 0.4 995513
5 march, fri
fri500:00−9wnw469481 0.1 997101
03:00−12nw349681 0.1 100038
06:00−15nnw339245 0.0 100226
09:00−13n358924 0.0 1003170
12:00−9nnw34810 0.0 1004384
15:00−8wnw35830 0.0 1006553
18:00−12wsw239018 0.0 100721
21:00−13wsw349546 0.0 100935
6 march, sat
sat600:00−12sw3697100 0.1 1009122
03:00−13sw3598100 0.2 101094
06:00−13sw339794 0.1 101066
09:00−10w239494 0.4 1010236
12:00−9nw3490100 0.2 1010489
15:00−10nnw3589100 0.3 1010630
18:00−16nw349388 0.1 101078
21:00−19nw349644 0.1 101134
7 march, sun
sun700:00−20wnw3310071 0.0 101128
03:00−21w2310068 0.0 101120
06:00−22sw3310088 0.0 101027
09:00−18ssw359785 0.0 1008178
12:00−12s699385 0.0 1006427
15:00−11s7139293 0.1 1002681
18:00−9s71394100 1.1 999829
21:00−8s71394100 1.9 995743